Weather History for Broken Bow, NE

Change the Weather History Date:

Saturday, September 21, 2013

  Actual Average Record
Temperature  
Mean Temperature 62 °F 60 °F  
Max Temperature 82 °F 74 °F 95 °F (1936)
Min Temperature 42 °F 46 °F 20 °F (1983)
Degree Days  
Heating Degree Days 3 6  
Month to date heating degree days 35 75  
Cooling Degree Days 0 1  
Month to date cooling degree days 120 57  
Year to date cooling degree days 806 753  
Growing Degree Days 12 (Base 50)    
Moisture  
Dew Point 48 °F    
Average Humidity 65    
Maximum Humidity 100    
Minimum Humidity 30    
Precipitation  
Precipitation 0.00 in 0.08 in 2.35 in (1960)
Sea Level Pressure  
Sea Level Pressure 29.88 in    
Wind  
Wind Speed 8 mph (South)    
Max Wind Speed 22 mph    
Max Gust Speed 28 mph    
Visibility 10 miles    
Events      
T = Trace of Precipitation, MM = Missing Value Source: NWS Daily Summary

Daily Weather History Graph

Daily Weather History Graph

Search for Another Location

Airport:

Trip Planner

Search our weather history database for the weather conditions in past years. The results will help you decide how hot, cold, wet, or windy it might be!

Date:

Astronomy

Sep. 21, 2013 Rise Set
Actual Time 7:25 AM CDT 7:36 PM CDT
Civil Twilight 6:57 AM CDT 8:04 PM CDT
Nautical Twilight 6:25 AM CDT 8:36 PM CDT
Astronomical Twilight 5:52 AM CDT 9:09 PM CDT
Moon 8:46 PM CDT (9/21) 9:47 AM CDT (9/21)
Length of Visible Light 13h 06m
Length of Day
12h 11m
Waning Gibbous, 94% of the Moon is Illuminated
Sep 21
Waning Gibbous
Sep 26
Last Quarter
Oct 4
New
Oct 11
First Quarter
Oct 18
Full

Hourly Weather History & Observations

Time (CDT) Temp. Windchill Dew Point Humidity Pressure Visibility Wind Dir Wind Speed Gust Speed Precip Events Conditions
12:53 AM 46.0 °F - 45.0 °F 96% 30.02 in 10.0 mi Calm Calm - N/A   Clear
1:53 AM 45.0 °F - 45.0 °F 100% 30.01 in 10.0 mi Calm Calm - N/A   Clear
2:53 AM 44.1 °F - 44.1 °F 100% 30.00 in 10.0 mi Calm Calm - N/A   Clear
3:53 AM 44.1 °F - 43.0 °F 96% 29.97 in 10.0 mi Calm Calm - N/A   Clear
4:53 AM 43.0 °F 35.7 °F 42.1 °F 97% 29.96 in 10.0 mi SSW 15.0 mph - N/A   Clear
5:53 AM 43.0 °F - 42.1 °F 97% 29.96 in 10.0 mi Calm Calm - N/A   Clear
6:53 AM 43.0 °F - 42.1 °F 97% 29.95 in 8.0 mi Calm Calm - N/A   Clear
7:53 AM 44.1 °F - 43.0 °F 96% 29.97 in 10.0 mi Calm Calm - N/A   Clear
8:53 AM 52.0 °F - 48.9 °F 89% 29.96 in 10.0 mi Calm Calm - N/A   Clear
9:53 AM 61.0 °F - 52.0 °F 72% 29.95 in 10.0 mi South 4.6 mph - N/A   Clear
10:53 AM 68.0 °F - 53.1 °F 59% 29.94 in 10.0 mi WSW 9.2 mph - N/A   Clear
11:53 AM 73.0 °F - 53.1 °F 49% 29.93 in 10.0 mi SSW 9.2 mph - N/A   Clear
12:53 PM 78.1 °F - 50.0 °F 37% 29.89 in 10.0 mi SSW 16.1 mph 21.9 mph N/A   Clear
1:53 PM 80.1 °F - 48.9 °F 34% 29.86 in 10.0 mi South 13.8 mph 25.3 mph N/A   Clear
2:53 PM 80.1 °F - 46.0 °F 30% 29.84 in 10.0 mi South 16.1 mph 27.6 mph N/A   Clear
3:53 PM 81.0 °F - 46.0 °F 29% 29.81 in 10.0 mi SSW 12.7 mph - N/A   Clear
4:53 PM 81.0 °F - 48.0 °F 31% 29.78 in 10.0 mi South 11.5 mph - N/A   Clear
5:53 PM 81.0 °F - 51.1 °F 35% 29.78 in 10.0 mi South 11.5 mph - N/A   Clear
6:53 PM 78.1 °F - 53.1 °F 42% 29.77 in 10.0 mi South 10.4 mph - N/A   Clear
7:53 PM 71.1 °F - 53.1 °F 53% 29.77 in 10.0 mi South 9.2 mph - N/A   Clear
8:53 PM 69.1 °F - 53.1 °F 57% 29.77 in 10.0 mi SSE 9.2 mph - N/A   Clear
9:53 PM 62.1 °F - 53.1 °F 72% 29.77 in 10.0 mi ESE 6.9 mph - N/A   Clear
10:53 PM 66.9 °F - 51.1 °F 57% 29.75 in 10.0 mi South 10.4 mph - N/A   Clear
11:53 PM 63.0 °F - 51.1 °F 65% 29.75 in 10.0 mi South 5.8 mph - N/A   Clear